This demonstration page uses our WeatherBlox Daily Observations layout. Learn more.

Left ArrowRight Arrow

Hourly Observations for January 18, 2019

Temp ( °F °C ) Dew Point ( °F °C ) Humidity (%) Winds ( mph kmh ) Pressure ( in mb ) Visibility ( mi km ) Precip ( " mm )
12:51 am 00:51 Clear 52 11.1 36 2.2 55 55 NNW 10 17 30.06 1018 10 16 N/A
1:51 am 01:51 Cloudy 54 12.2 37 2.8 53 53 VRB 3 6 30.03 1017 10 16 N/A
2:51 am 02:51 Mostly Cloudy 48 8.9 39 3.9 71 71 N N/A 30.02 1017 10 16 N/A
3:51 am 03:51 Partly Cloudy 49 9.4 39 3.9 69 69 undefined N/A 30.01 1016 10 16 N/A
4:51 am 04:51 Clear 53 11.7 40 4.4 61 61 NW 10 17 29.97 1015 10 16 N/A
5:51 am 05:51 Clear 52 11.1 43 6.1 72 72 NW 13 20 29.98 1015 10 16 N/A
6:51 am 06:51 Mostly Cloudy 50 10 43 6.1 77 77 WNW 13 20 30.01 1016 10 16 N/A
7:51 am 07:51 Mostly Sunny 52 11.1 44 6.7 75 75 NW 13 20 30.02 1017 10 16 N/A
8:51 am 08:51 Sunny 56 13.3 44 6.7 65 65 NW 22 35 30.01 1016 10 16 N/A
9:51 am 09:51 Mostly Sunny 59 15 44 6.7 58 58 NW 25 41 30.03 1017 10 16 N/A
10:51 am 10:51 Sunny 61 16.1 44 6.7 54 54 NW 21 33 30.02 1017 10 16 N/A
11:51 am 11:51 Mostly Sunny 63 17.2 41 5 45 45 NW 22 35 30.02 1017 10 16 N/A
12:51 pm 12:51 Sunny 63 17.2 41 5 45 45 NW 25 41 29.96 1014 10 16 N/A
1:51 pm 13:51 Sunny 65 18.3 39 3.9 39 39 NW 28 44 29.91 1013 10 16 N/A
2:51 pm 14:51 Mostly Sunny 65 18.3 37 2.8 36 36 WNW 30 48 29.93 1014 10 16 N/A
3:51 pm 15:51 Sunny with Light Rain 64 17.8 36 2.2 35 35 WNW 29 46 29.94 1014 10 16 N/A
4:51 pm 16:51 Sunny with Light Rain 62 16.7 37 2.8 40 40 WNW 22 35 29.96 1014 10 16 N/A
5:51 pm 17:51 Mostly Cloudy 59 15 38 3.3 46 46 W 16 26 30.02 1017 10 16 N/A
6:51 pm 18:51 Cloudy 58 14.4 39 3.9 50 50 NNW 10 17 30.07 1018 10 16 N/A
7:51 pm 19:51 Partly Cloudy 56 13.3 34 1.1 44 44 NNW 13 20 30.10 1019 10 16 N/A
8:51 pm 20:51 Clear 54 12.2 30 -1.1 40 40 NW 13 20 30.13 1020 10 16 N/A
9:51 pm 21:51 Clear 51 10.6 25 -3.9 36 36 NW 10 17 30.14 1021 10 16 N/A
10:51 pm 22:51 Clear 50 10 22 -5.6 33 33 WNW 12 19 30.16 1021 10 16 N/A
11:51 pm 23:51 Clear 47 8.3 22 -5.6 37 37 NNW 10 17 30.19 1022 10 16 N/A

Powered by AerisWeather